Location: Sungai Ketit
(2.6833°N, 113.2333°E)
Time: 19:53:36
(UTC+00:00)

Cosmos 1782 - Pass Details

Date: 23 May 2024
Orbit: 510 x 517 km, 82.5° (Epoch: 19 June)

Event Time Altitude Azimuth Distance (km) Brightness Sun altitude
Exits shadow 11:20:06 11° 152° (SSE) 1,654 4.8 -12.1°
Maximum altitude 11:23:12 28° 93° (E) 968 3.5 -12.9°
Drops below altitude 10° 11:26:29 10° 33° (NNE) 1,722 5.2 -13.6°
Sets 11:28:47 0° 21° (NNE) 2,606 6.3 -14.1°
